Location: Gold Fund Mine
(38.3819°N, 119.0996°W)
Time: 17:10:37
(UTC+00:00)

Meteor 1-4 Rocket - Pass Details

Date: 18 September 2020
Orbit: 450 x 501 km, 81.2° (Epoch: 19 October)

Event Time Altitude Azimuth Distance (km) Brightness Sun altitude
Exits shadow 12:09:58 21° 181° (S) 1,072 4.1 -18.4°
Maximum altitude 12:12:10 76° 98° (E) 469 2.5 -18.0°
Drops below altitude 10° 12:15:39 10° 12° (NNE) 1,599 5.5 -17.3°
Sets 12:17:44 0° 11° (N) 2,483 6.5 -16.9°
